BEIDOU-2 IGSO-7 (C16)

Last updated on Mon Jun 22 2026 00:03:31 GMT+0000 (Coordinated Universal Time)

1 43539U 18057A 26171.91802064 -.00000023 00000+0 00000+0 0 9996 2 43539 55.1960 163.0240 0104976 238.0113 308.2121 1.00249965 29164
UTC large
Height (km)
Speed (km/s)
/
Latitude / Longitude
Inclination (degrees)
Orbital Period (minutes)
Azimuth
Elevation
Range (km)
Doppler Factor

Next 0 passes for location: London (51.5072 / 0.1276)

No passes found over London.
BEIDOU-2 IGSO-7 (C16)